This is the latest recevied weather packets stored in our database for station/object AF9W-5. If no packets are shown the sender has not sent any weather packets the latest 10 day(s).
| Time | Temp. | Humidity | Pressure | Rain* | Wind** | Luminosity | Snow |
|---|---|---|---|---|---|---|---|
| 1777159968 | 26.67° C | 20% | 1008.8 hPa | 0 mm | - | 171 W/m² | - |
| 1777159664 | 26.67° C | 20% | 1008.8 hPa | 0 mm | - | 237 W/m² | - |
| 1777159361 | 26.67° C | 20% | 1008.6 hPa | 0 mm | - | 198 W/m² | - |
| 1777159057 | 27.22° C | 19% | 1008.9 hPa | 0 mm | - | 333 W/m² | - |
| 1777158753 | 26.67° C | 19% | 1009.1 hPa | 0 mm | - | 406 W/m² | - |
| 1777158447 | 27.22° C | 19% | 1008.6 hPa | 0 mm | - | 429 W/m² | - |
| 1777158142 | 27.22° C | 19% | 1008.9 hPa | 0 mm | - | 404 W/m² | - |
| 1777157838 | 27.22° C | 19% | 1009 hPa | 0 mm | - | 496 W/m² | - |
| 1777157534 | 27.22° C | 19% | 1008.9 hPa | 0 mm | - | 506 W/m² | - |
| 1777157231 | 26.67° C | 19% | 1009 hPa | 0 mm | - | 547 W/m² | - |
| 1777156930 | 26.67° C | 19% | 1009 hPa | 0 mm | - | 383 W/m² | - |
| 1777156625 | 27.22° C | 18% | 1009.2 hPa | 0 mm | - | 609 W/m² | - |
| 1777156323 | 27.22° C | 19% | 1009.3 hPa | 0 mm | - | 661 W/m² | - |
| 1777156019 | 27.22° C | 18% | 1009.1 hPa | 0 mm | - | 625 W/m² | - |
| 1777155715 | 27.22° C | 18% | 1009 hPa | 0 mm | - | 328 W/m² | - |
| 1777155412 | 27.22° C | 18% | 1009.6 hPa | 0 mm | - | 339 W/m² | - |
| 1777155109 | 26.67° C | 18% | 1009.5 hPa | 0 mm | - | 523 W/m² | - |
| 1777154806 | 27.22° C | 18% | 1009.6 hPa | 0 mm | - | 595 W/m² | - |
| 1777154503 | 27.22° C | 18% | 1009.6 hPa | 0 mm | - | 558 W/m² | - |
| 1777154203 | 27.22° C | 18% | 1009.6 hPa | 0 mm | - | 601 W/m² | - |
| 1777153900 | 26.67° C | 18% | 1009.6 hPa | 0 mm | - | 486 W/m² | - |
| 1777153596 | 26.67° C | 18% | 1009.6 hPa | 0 mm | - | 623 W/m² | - |
| 1777153292 | 26.67° C | 18% | 1009.6 hPa | 0 mm | - | 665 W/m² | - |
| 1777152988 | 27.22° C | 18% | 1009.5 hPa | 0 mm | - | 731 W/m² | - |
| 1777152685 | 26.67° C | 18% | 1009.8 hPa | 0 mm | - | 741 W/m² | - |
* Rain latest hour (hover to see other rain measurements)
** Current wind speed in m/s (hover to see current wind gust speed)